Regional Weather Roundup
Issued by NWS Upton, NY

Current Version | Previous Version | Text Only | Print | Product List | Glossary On
Versions: 1 2 3 4 5 6 7 8 9 10 11 12 13 14 15 16 17 18 19 20 21 22 23 24 25 26 27 28 29 30 31 32 33 34 35 36 37 38 39 40 41 42 43 44 45 46 47 48 49 50
596
ASUS41 KOKX 041708
RWROKX

REGIONAL WEATHER ROUNDUP
NATIONAL WEATHER SERVICE NEW YORK NY
1200 PM EST SUN DEC 04 2016

NOTE: "FAIR" INDICATES FEW OR NO CLOUDS BELOW 12,000 FEET WITH NO
SIGNIFICANT WEATHER AND/OR OBSTRUCTIONS TO VISIBILITY.

NYZ071-072-176-178-NJZ106-104-041800-
NEW YORK CITY METRO AREA

CITY           SKY/WX    TMP DP  RH WIND       PRES   REMARKS
Central Park   SUNNY     44  21  40 N9        30.23F
Wall St Helipt SUNNY     48  26  42 W6        30.22F
Bronx Bot Gard   N/A     43  23  45 W5        30.22F
LaGuardia APRT MOSUNNY   45  23  42 N9G18     30.21F
Kennedy INTL   MOSUNNY   46  21  37 NW17      30.22F
Breezy Point     N/A     43 N/A N/A NW9         N/A
Newark/Liberty MOSUNNY   45  22  40 NW8       30.21F
Teterboro      SUNNY     44  22  41 NW10      30.21F
$$

NYZ177-179-078>081-041800-
LONG ISLAND NEW YORK

CITY           SKY/WX    TMP DP  RH WIND       PRES   REMARKS
Jones Beach      N/A     41 N/A N/A NW12        N/A
Matinecock PT  NOT AVBL
Farmingdale    SUNNY     42  23  46 NW10      30.21F
MacArthur/ISP  MOSUNNY   42  24  49 NW10      30.20S
Shirley        SUNNY     41  23  48 N15G23    30.20F
Westhampton    SUNNY     41  23  48 NW12      30.20F
Southampton      N/A     41  28  60 NW9       30.16F
Bridgehampton  NOT AVBL
East Hampton     N/A     39  20  47 NW9G18    30.18F WCI  33
Montauk          N/A     40  22  48 NW12      30.19F WCI  33
$$

NYZ052-065-067-041800-
HUDSON VALLEY

CITY           SKY/WX    TMP DP  RH WIND       PRES   REMARKS
White Plains   SUNNY     41  20  43 NW14G20   30.19F
Newburgh       SUNNY     39  25  56 VRB5      30.22F
Montgomery     SUNNY     43  22  43 NW10      30.19F
Poughkeepsie   SUNNY     39  22  50 VRB6      30.22F WCI  35
Albany         CLOUDY    34  20  56 NW9       30.26F WCI  27
$$

NJZ001-105-106-008-010-013-015-019>022-104-041800-
NEW JERSEY

CITY           SKY/WX    TMP DP  RH WIND       PRES   REMARKS
Newark/Liberty MOSUNNY   45  22  40 NW8       30.21F
Teterboro      SUNNY     44  22  41 NW10      30.21F
Caldwell       SUNNY     44  22  41 VRB5      30.22F
Somerville     SUNNY     45  22  40 NW6       30.20F
Linden           N/A     45  22  40 NW8G18    30.22F
Sussex         SUNNY     43  23  45 NW7       30.20F
Andover          N/A     43  24  47 N6        30.20F
Trenton        MOSUNNY   46  25  43 W8        30.21F
Millville      PTSUNNY   47  29  49 NW8       30.22F
Atlantic City  MOSUNNY   48  26  42 NW15      30.21F
Wrightstown    NOT AVBL
Toms River     SUNNY     46  25  43 N10       30.22F
Belmar         SUNNY     48  24  39 W10       30.22F
$$

PAZ047>061-062-071-041800-
EASTERN PENNSYLVANIA

CITY           SKY/WX    TMP DP  RH WIND       PRES   REMARKS
Philadelphia   CLOUDY    46  25  43 NW9       30.23F
Allentown      MOSUNNY   44  25  47 NW8       30.22F
Scranton       MOSUNNY   42  25  50 N10       30.21F
$$

CTZ002-004>006-009-010-012-RIZ004-006-007-MAZ004-011-015-041800-
SOUTHERN NEW ENGLAND
 IN CT

CITY           SKY/WX    TMP DP  RH WIND       PRES   REMARKS
Bradley INTL   MOSUNNY   40  19  43 N9        30.19F WCI  34
Hartford       SUNNY     40  21  46 VRB6      30.20F
Danbury        NOT AVBL
Wtrbury/Oxford MOSUNNY   37  18  44 MISG      30.19F
Bridgeport     SUNNY     43  21  41 N13       30.20F
Meriden        SUNNY     42  20  41 N10       30.20S
New Haven      MOSUNNY   41  21  44 N9        30.19F
Chester          N/A     39  19  45 NW13      30.18S WCI  32
Groton         SUNNY     44  22  41 NW12      30.18F
Wilimantic     SUNNY     41  22  46 N13       30.19F

 IN RI

CITY           SKY/WX    TMP DP  RH WIND       PRES   REMARKS
Providence     MOSUNNY   40  21  46 NW13      30.18F WCI  32
Block Island   MOSUNNY   40  24  53 NW8       30.18  WCI  34
Westerly       SUNNY     41  19  41 N8        30.18F
 IN MA

CITY           SKY/WX    TMP DP  RH WIND       PRES   REMARKS
Boston         MOSUNNY   39  21  48 NW9       30.17S WCI  33
Worcester      SUNNY     34  18  52 NW10G20   30.14S WCI  26
Westfield      SUNNY     39  21  48 N12       30.18F WCI  32
Provincetown   CLOUDY    37  25  61 NW15      30.16S WCI  28
Nantucket      MOSUNNY   40  25  55 N21       30.14S WCI  30
$$

ANZ330-335-338-340-345-350-353-355-041800-
COASTAL MARINE OBSERVATIONS


STATION/POSITION TIME  SKY/WX   TEMP    WIND        PRES    VSBY  WAVE
                                AIR SEA DIR/SP/G                  HT/PER
                 (UTC)          (F)     (DEG/KT/KT) (MB)    (MI)  (FT/S)
NY HARB ENTRANCE 1650            42 53  330/ 14/ 17 1022.7          2/ 4
20 S FIRE ISLAND 1650            40 53  340/ 10/ 16 1022.7          3/ 4
GREAT SOUTH BAY  1630            40 44                N/A
23 SSW MONTAUK P 1650            39 55  330/ 14/ 17 1022.5          3/ 4
15 E BARNEGAT LI 1630               54                N/A           3/ 5
HUDSON CANYON    1550            44 58              1022.3          4/ 6
KINGS POINT      1630            41 48              1022.9
EXECUTION ROCKS  1645            45     330/ 12/ 16   N/A
CENTRAL LI SOUND 1615            39 51  340/ 12/ 16   N/A           1/ 3
EASTERN LI SOUND NOT AVBL
ROBBINS REEF     1630            41     350/ 12/ 15 1023.4
$$


>>>>>>>>>>>>>>>>>>>>>>>>>>>> KEY <<<<<<<<<<<<<<<<<<<<<<<<<<<
>                                                          <
>     SKY/WX - Sky Condition/Present Weather               <
>     TMP    - Temperature in Fahrenheit                   <
>     DP     - Dew Point in Fahrenheit                     <
>     RH     - Relative Humidity in Percent                <
>     WIND   - Direction (from) and Speed in MPH           <
>     PRES   - Mean Sea Level Pressure (inches of Hg)      <
>     WCI    - Wind Chill Index                            <
>     VSB    - VISIBILITY IN MILES                         <
>     HX     - HEAT INDEX                                  <
>     TC     - TEMPERATURE IN CELSIUS                      <
>     VRB    - VARIABLE WIND DIRECTION                     <
>                                                          <
>>>>>>>>>>>>>>>>>>>>>>>>>>>> KEY <<<<<<<<<<<<<<<<<<<<<<<<<<<




USA.gov is the U.S. government's official web portal to all federal, state and local government web resources and services.